Hourly Data Report for October 21, 2014

All times are specified in Local Standard Time (LST). Add 1 hour to adjust for Daylight Saving Time where and when it is observed.

PENTICTON A
BRITISH COLUMBIA

49°27'45.000" N
119°36'08.000" W
344.40 m
1126146
71889
YYF

Download Data

Hourly Data (October 2014)
Hourly Data Report for October 21, 2014
Temp Definition
°C
Dew Point Temp Definition
°C
Rel Hum Definition
%
Wind Dir Definition
10's deg

Wind Spd Definition
km/h
Visibility Definition
km
Stn Press Definition
kPa
Hmdx Definition


Wind Chill Definition


Weather Definition


TIME
00:00 Legend Double Dagger 13.4 8.9 74 19 29 24.1 96.68     LegendNANA
01:00 Legend Double Dagger 13.1 8.4 73 19 30 24.1 96.72     Mostly Cloudy
02:00 Legend Double Dagger 13.0 8.7 75 19 21 24.1 96.73     LegendNANA
03:00 Legend Double Dagger 12.8 8.7 76 17 19 24.1 96.73     LegendNANA
04:00 Legend Double Dagger 12.6 8.9 78 18 24 24.1 96.76     Mostly Cloudy
05:00 Legend Double Dagger 12.4 8.7 78 18 23 24.1 96.79     LegendNANA
06:00 Legend Double Dagger 12.1 8.4 78 18 21 24.1 96.85     LegendNANA
07:00 Legend Double Dagger 11.9 8.6 80 18 23 24.1 96.88     Mostly Cloudy
08:00 Legend Double Dagger 12.0 8.3 78 17 18 24.1 96.93     LegendNANA
09:00 Legend Double Dagger 13.7 8.4 70 17 26 24.1 96.95     LegendNANA
10:00 Legend Double Dagger 14.3 8.5 68 18 30 24.1 96.98     Mostly Cloudy
11:00 Legend Double Dagger 14.9 7.0 59 18 28 24.1 96.98     LegendNANA
12:00 Legend Double Dagger 16.4 7.4 55 19 27 24.1 96.96     LegendNANA
13:00 Legend Double Dagger 15.3 6.9 57 18 27 24.1 96.96     Rain Showers
14:00 Legend Double Dagger 16.6 8.4 58 18 22 24.1 96.93     LegendNANA
15:00 Legend Double Dagger 15.8 7.9 59 19 22 24.1 96.93     LegendNANA
16:00 Legend Double Dagger 14.9 7.8 62 19 24 24.1 96.96     Mainly Clear
17:00 Legend Double Dagger 14.8 7.4 61 19 26 24.1 96.93     LegendNANA
18:00 Legend Double Dagger 15.1 7.0 58 20 26 24.1 96.99     LegendNANA
19:00 Legend Double Dagger 14.0 7.1 63 19 20 24.1 96.99     Mostly Cloudy
20:00 Legend Double Dagger 13.9 6.8 62 19 26 24.1 96.91     LegendNANA
21:00 Legend Double Dagger 14.4 5.6 55 20 32 24.1 96.89     LegendNANA
22:00 Legend Double Dagger 14.2 5.1 54 19 36 24.1 96.88     Mainly Clear
23:00 Legend Double Dagger 14.1 5.0 54 19 43 24.1 96.87     LegendNANA

Notes on Data Quality.

Legend

  • E = Estimated
  • M = Missing
  • NA = Not Available
  • ‡ = Partner data that is not subject to review by the National Climate Archives
Date modified: